Volver al catálogo

BREEZE-M DEB

ActivoHEO
NORAD 34224·DEBRIS·🇷🇺 Russia

Lanzado Feb 28, 2006 desde Baikonur Cosmodrome

Loading…

Próximos Pases (próximas 24 horas)

TLE

ActualizadoSource: Space-Track

Época: Sep 8, 2026, 04:33 UTC

1 34224U 06006AP  26251.19015639 -.00000040  00000-0 -78939-4 0  9993
2 34224  52.1154 201.1961 4967212 222.0761  86.7844  5.38848136  8164

Sigue BREEZE-M DEB en tiempo real con AllMySat

Download on the App Store